This demonstration page uses our WeatherBlox Daily Observations layout. Learn more.

Left ArrowRight Arrow

38.20091, -84.87328

Hourly Observations for February 17, 2018

Temp ( °F °C ) Dew Point ( °F °C ) Humidity (%) Winds ( mph kmh ) Pressure ( in mb ) Visibility ( mi km ) Precip ( " mm )
12:53 am 00:53 Cloudy 37 2.8 28 -2.2 70 70 Calm 30.27 1025 10 16 0.00 0.00
1:53 am 01:53 Cloudy 37 2.8 29 -1.7 73 73 Calm 30.27 1025 10 16 0.00 0.00
2:53 am 02:53 Cloudy 37 2.8 29 -1.7 73 73 ENE 3 6 30.25 1024 10 16 0.00 0.00
3:53 am 03:53 Cloudy 36 2.2 28 -2.2 73 73 E 6 9 30.22 1023 10 16 0.00 0.00
4:53 am 04:53 Cloudy 35 1.7 28 -2.2 76 76 E 6 9 30.20 1023 10 16 0.00 0.00
5:17 am 05:17 Partly Cloudy 34 1.1 28 -2.2 79 79 ENE 6 9 30.24 1024 10 16 0.00 0.00
5:53 am 05:53 Clear 35 1.7 28 -2.2 76 76 ENE 6 9 30.18 1022 10 16 0.00 0.00
6:53 am 06:53 Clear 35 1.7 28 -2.2 76 76 E 6 9 30.17 1022 10 16 0.00 0.00
7:53 am 07:53 Sunny 35 1.7 28 -2.2 76 76 ENE 6 9 30.15 1021 10 16 0.00 0.00
8:53 am 08:53 Mostly Sunny 36 2.2 28 -2.2 73 73 NNE 7 11 30.17 1022 10 16 0.00 0.00
9:53 am 09:53 Partly Cloudy 37 2.8 29 -1.7 73 73 ENE 6 9 30.11 1020 10 16 0.00 0.00
10:53 am 10:53 Cloudy 37 2.8 29 -1.7 73 73 NE 3 6 30.14 1021 10 16 0.00 0.00
11:53 am 11:53 Cloudy with Light Rain 37 2.8 31 -0.6 79 79 ESE 8 13 30.12 1020 7 11 0.00 0.03
12:08 pm 12:08 Cloudy with Heavy Rain 37 2.8 31 -0.6 79 79 E 6 9 30.12 1020 3 4 0.04 1.02
12:40 pm 12:40 Cloudy with Light Snow 35 1.7 31 -0.6 85 85 Calm 30.09 1019 2 3 0.11 2.79
12:48 pm 12:48 Cloudy with Light Snow 34 1 30 -1 87 87 NNE 3 6 30.09 1019 2 2 0.12 3.05
12:53 pm 12:53 Cloudy with Light Snow 34 1.1 31 -0.6 89 89 N 3 6 30.06 1018 1 2 0.14 3.56
12:59 pm 12:59 Cloudy with Light Snow 34 1.1 30 -1.1 85 85 N 3 6 30.09 1019 1 1 0.02 0.51
1:05 pm 13:05 Cloudy with Light Snow 34 1.1 30 -1.1 85 85 NNE 3 6 30.06 1018 1 2 0.04 1.02
1:24 pm 13:24 Cloudy with Rain 34 1.1 31 -0.6 89 89 Calm 30.06 1018 2 2 0.09 2.29
1:29 pm 13:29 Cloudy with Rain 34 1.1 31 -0.6 89 89 Calm 30.06 1018 2 3 0.10 2.54
1:42 pm 13:42 Cloudy with Rain 34 1.1 31 -0.6 89 89 ENE 3 6 30.06 1018 2 3 0.12 3.05
1:49 pm 13:49 Cloudy with Rain 34 1 30 -1 87 87 Calm 30.06 1018 2 3 0.14 3.56
1:53 pm 13:53 Cloudy with Light Snow 34 1.1 31 -0.6 89 89 Calm 30.04 1017 2 2 0.14 3.56
2:13 pm 14:13 Cloudy with Light Snow 34 1.1 31 -0.6 89 89 N 3 6 30.06 1018 2 3 0.01 0.25
2:25 pm 14:25 Cloudy with Light Snow 34 1.1 31 -0.6 89 89 N 3 6 30.06 1018 2 3 0.02 0.51
2:46 pm 14:46 Cloudy with Light Rain 34 1.1 31 -0.6 89 89 Calm 30.06 1018 2 3 0.05 1.27
2:50 pm 14:50 Cloudy with Light Rain 34 1 30 -1 87 87 Calm 30.06 1018 2 3 0.05 1.27
2:53 pm 14:53 Cloudy with Light Rain 34 1.1 31 -0.6 89 89 Calm 30.04 1017 2 3 0.05 1.27
3:02 pm 15:02 Cloudy with Light Rain 34 1.1 31 -0.6 89 89 Calm 30.06 1018 2 3 0.01 0.25
3:18 pm 15:18 Cloudy with Light Rain 34 1.1 31 -0.6 89 89 ESE 3 6 30.03 1017 3 4 0.02 0.51
3:53 pm 15:53 Cloudy with Mist and Fog 35 1.7 32 0 89 89 Calm 30.01 1016 2 3 0.02 0.51
4:11 pm 16:11 Cloudy with Mist and Fog 36 2.2 32 0 86 86 undefined N/A 30.03 1017 3 5 0.00 0.00
4:53 pm 16:53 Cloudy with Mist and Fog 36 2.2 33 0.6 89 89 Calm 30.02 1017 3 5 0.00 0.00
5:31 pm 17:31 Cloudy with Mist and Fog 36 2.2 33 0.6 89 89 Calm 30.06 1018 3 4 0.00 0.00
5:39 pm 17:39 Cloudy with Mist and Fog 36 2.2 33 0.6 89 89 Calm 30.06 1018 3 5 0.00 0.00
5:48 pm 17:48 Cloudy with Mist and Fog 36 2 34 1 93 93 W 3 6 30.06 1018 3 5 0.00 0.00
5:53 pm 17:53 Cloudy with Mist and Fog 36 2.2 33 0.6 89 89 WSW 3 6 30.04 1017 3 4 0.00 0.00
6:31 pm 18:31 Cloudy with Mist and Fog 37 2.8 33 0.6 86 86 Calm 30.09 1019 3 5 0.00 0.00
6:39 pm 18:39 Cloudy with Mist and Fog 37 2.8 34 1.1 89 89 Calm 30.09 1019 3 4 0.00 0.00
6:53 pm 18:53 Cloudy with Mist and Fog 37 2.8 34 1.1 89 89 WSW 3 6 30.07 1018 3 4 0.00 0.00
7:07 pm 19:07 Cloudy with Mist and Fog 37 2.8 34 1.1 89 89 WSW 5 7 30.09 1019 2 3 0.00 0.00
7:31 pm 19:31 Cloudy with Mist and Fog 37 2.8 34 1.1 89 89 Calm 30.12 1020 2 3 0.00 0.00
7:39 pm 19:39 Cloudy with Mist and Fog 37 2.8 35 1.7 93 93 Calm 30.12 1020 2 3 0.00 0.00
7:51 pm 19:51 Cloudy with Mist and Fog 37 3 36 2 93 93 Calm 30.12 1020 2 3 0.00 0.00
7:53 pm 19:53 Cloudy with Mist and Fog 37 2.8 35 1.7 93 93 Calm 30.10 1019 2 3 0.00 0.00
8:35 pm 20:35 Cloudy with Mist and Fog 38 3.3 35 1.7 89 89 WSW 5 7 30.12 1020 3 5 0.00 0.00
8:53 pm 20:53 Cloudy with Mist and Fog 39 3.9 36 2.2 89 89 WSW 8 13 30.11 1020 4 6 0.00 0.00
9:36 pm 21:36 Cloudy 40 4.4 36 2.2 86 86 W 10 17 30.15 1021 7 11 0.00 0.00
9:53 pm 21:53 Cloudy 40 4.4 36 2.2 86 86 W 8 13 30.15 1021 7 11 0.00 0.00
10:30 pm 22:30 Cloudy 40 4.4 36 2.2 86 86 W 10 17 30.18 1022 10 16 0.00 0.00
10:43 pm 22:43 Cloudy with Mist and Fog 40 4.4 36 2.2 86 86 W 13 20 30.21 1023 5 8 0.00 0.00
10:53 pm 22:53 Cloudy with Mist and Fog 40 4.4 36 2.2 86 86 W 9 15 30.18 1022 5 8 0.00 0.00
11:08 pm 23:08 Cloudy 39 3.9 35 1.7 86 86 W 10 17 30.21 1023 10 16 0.00 0.00
11:53 pm 23:53 Cloudy 39 3.9 34 1.1 82 82 W 8 13 30.20 1023 10 16 0.00 0.00

Powered by AerisWeather